GW6416 Weather Reports


time (UTC)temp
C
wind
direction
speed
KPH
gust
KPH
rain 1hr
cm
rain 24hr
cm
rain mn
cm
humidity
%
barometer
mb
20260504100505 11 183 1.6 8.0 0.00 0.00 0.00 77 1014.4
20260504081529 11 183 3.2 6.4 0.00 0.00 0.00 76 1014.9
20260504081009 11 188 3.2 6.4 0.00 0.00 0.00 76 1015.0
20260504080517 11 201 1.6 8.0 0.00 0.00 0.00 76 1015.0
20260504050503 4 109 0.0 0.0 0.00 0.00 0.00 88 1015.0
20260504050006 5 109 0.0 0.0 0.00 0.00 0.00 89 1015.0
20260504045503 4 109 0.0 0.0 0.00 0.00 0.00 89 1015.0
20260504045005 4 109 0.0 0.0 0.00 0.00 0.00 89 1015.0
20260504044513 4 109 0.0 0.0 0.00 0.00 0.00 88 1015.1
20260504044006 4 109 0.0 0.0 0.00 0.00 0.00 88 1015.0
20260504043504 4 109 0.0 0.0 0.00 0.00 0.00 88 1015.0
20260504043013 4 109 0.0 0.0 0.00 0.00 0.00 88 1014.9
20260504042504 4 109 0.0 0.0 0.00 0.00 0.00 88 1014.8
20260504042004 4 109 0.0 0.0 0.00 0.00 0.00 87 1014.7
20260504041511 4 109 0.0 0.0 0.00 0.00 0.00 87 1014.7
20260504041003 4 109 0.0 0.0 0.00 0.00 0.00 87 1014.9
20260504040503 4 109 0.0 0.0 0.00 0.00 0.00 86 1014.8
20260504040006 4 109 0.0 0.0 0.00 0.00 0.00 86 1014.6
20260504035503 4 109 0.0 0.0 0.00 0.00 0.00 87 1014.7
20260504035003 4 109 0.0 0.0 0.00 0.00 0.00 86 1014.7
20260504034510 4 109 0.0 0.0 0.00 0.00 0.00 86 1014.6
20260504034004 4 109 0.0 0.0 0.00 0.00 0.00 86 1014.7
20260504033504 4 109 0.0 0.0 0.00 0.00 0.00 86 1014.6
20260504033015 5 109 0.0 0.0 0.00 0.00 0.00 85 1014.6
20260504032504 5 109 0.0 0.0 0.00 0.00 0.00 84 1014.5
20260504032004 5 109 0.0 0.0 0.00 0.00 0.00 85 1014.5
20260504031515 5 109 0.0 0.0 0.00 0.00 0.00 84 1014.6
20260504031003 5 109 0.0 0.0 0.00 0.00 0.00 84 1014.5
20260504030504 5 109 0.0 0.0 0.00 0.00 0.00 84 1014.5
20260504030014 5 109 0.0 0.0 0.00 0.00 0.00 84 1014.5
20260504025504 5 109 0.0 0.0 0.00 0.00 0.00 82 1014.5
20260504025006 5 109 0.0 0.0 0.00 0.00 0.00 82 1014.4
20260504024506 5 109 0.0 0.0 0.00 0.00 0.00 82 1014.3
20260504024003 5 109 0.0 0.0 0.00 0.00 0.00 81 1014.3
20260504023504 5 109 0.0 0.0 0.00 0.00 0.00 80 1014.3
20260504023010 6 109 0.0 0.0 0.00 0.00 0.00 78 1014.2
20260504022508 6 109 0.0 0.0 0.00 0.00 0.00 78 1014.2
20260504022004 6 109 0.0 0.0 0.00 0.00 0.00 79 1014.3
20260504021513 6 109 0.0 0.0 0.00 0.00 0.00 76 1014.3
20260504021007 6 109 0.0 0.0 0.00 0.00 0.00 78 1014.3
20260504020504 6 109 0.0 0.0 0.00 0.00 0.00 77 1014.3
20260504020020 6 109 0.0 0.0 0.00 0.00 0.00 77 1014.3
20260504015507 6 109 0.0 0.0 0.00 0.00 0.00 75 1014.3
20260504015004 6 109 0.0 0.0 0.00 0.00 0.00 75 1014.2
20260504014514 6 109 0.0 0.0 0.00 0.00 0.00 74 1014.2
20260504014003 6 109 0.0 0.0 0.00 0.00 0.00 74 1014.2
20260504013503 6 109 0.0 0.0 0.00 0.00 0.00 73 1014.2
20260504013008 7 109 0.0 0.0 0.00 0.00 0.00 72 1014.3
20260504012504 7 109 0.0 0.0 0.00 0.00 0.00 72 1014.3
20260504012005 7 109 0.0 3.2 0.00 0.00 0.00 74 1014.2
20260504011510 7 109 0.0 3.2 0.00 0.00 0.00 74 1014.2
20260504011007 7 109 0.0 3.2 0.00 0.00 0.00 72 1014.1
20260504010505 7 109 0.0 3.2 0.00 0.00 0.00 71 1014.1
20260504010014 7 109 0.0 0.0 0.00 0.00 0.00 72 1014.1
20260504005504 8 86 0.0 0.0 0.00 0.00 0.00 66 1014.0
20260504005004 7 86 0.0 0.0 0.00 0.00 0.00 68 1014.0
20260504004533 8 86 0.0 0.0 0.00 0.00 0.00 66 1014.0
20260504004006 8 86 0.0 0.0 0.00 0.00 0.00 65 1013.9
20260504003505 8 85 0.0 1.6 0.00 0.00 0.00 62 1013.9
20260504003017 8 85 0.0 3.2 0.00 0.00 0.00 65 1013.8
20260504002504 8 85 0.0 3.2 0.00 0.00 0.00 63 1013.7
20260504002005 9 92 0.0 3.2 0.00 0.00 0.00 61 1013.6
20260504001526 10 92 0.0 0.0 0.00 0.00 0.00 59 1013.6
20260504001005 10 92 0.0 3.2 0.00 0.00 0.00 60 1013.6
20260504000504 10 92 0.0 3.2 0.00 0.00 0.00 55 1013.5
20260504000012 10 92 0.0 3.2 0.00 0.00 0.00 54 1013.4
20260503235504 11 92 0.0 3.2 0.00 0.00 0.00 54 1013.3
20260503235006 11 92 0.0 3.2 0.00 0.00 0.00 54 1013.3
20260503234520 11 92 0.0 3.2 0.00 0.00 0.00 53 1013.2
20260503234007 12 92 0.0 3.2 0.00 0.00 0.00 51 1013.2
20260503233509 12 119 0.0 3.2 0.00 0.00 0.00 49 1013.2
20260503233018 12 323 0.0 3.2 0.00 0.00 0.00 47 1013.2
20260503232508 13 323 0.0 3.2 0.00 0.00 0.00 41 1013.1
20260503232007 14 193 0.0 4.8 0.00 0.00 0.00 36 1013.1
20260503231522 15 292 1.6 6.4 0.00 0.00 0.00 33 1013.2
20260503231004 15 314 1.6 6.4 0.00 0.00 0.00 33 1013.2
20260503230506 15 5 3.2 6.4 0.00 0.00 0.00 33 1013.1
20260503230011 15 333 1.6 6.4 0.00 0.00 0.00 33 1013.2
20260503225508 15 250 1.6 6.4 0.00 0.00 0.00 33 1013.3
20260503225003 15 140 1.6 6.4 0.00 0.00 0.00 34 1013.3
20260503224518 15 44 0.0 6.4 0.00 0.00 0.00 34 1013.2
20260503224005 16 275 3.2 12.9 0.00 0.00 0.00 33 1013.2
20260503223508 16 146 1.6 12.9 0.00 0.00 0.00 31 1013.2
20260503223020 16 29 3.2 12.9 0.00 0.00 0.00 33 1013.1
20260503222505 16 13 1.6 14.5 0.00 0.00 0.00 32 1013.2
20260503222007 16 350 8.0 14.5 0.00 0.00 0.00 32 1013.2
20260503221517 16 298 4.8 11.3 0.00 0.00 0.00 31 1013.2
20260503221006 16 22 3.2 12.9 0.00 0.00 0.00 32 1013.2
20260503220510 16 65 6.4 14.5 0.00 0.00 0.00 32 1013.3
20260503220020 16 351 4.8 17.7 0.00 0.00 0.00 31 1013.3
20260503215504 16 269 6.4 17.7 0.00 0.00 0.00 32 1013.3
20260503215003 16 55 1.6 12.9 0.00 0.00 0.00 31 1013.2
20260503214528 16 332 3.2 16.1 0.00 0.00 0.00 33 1013.2
20260503214003 16 26 3.2 16.1 0.00 0.00 0.00 33 1013.1
20260503213507 16 287 3.2 11.3 0.00 0.00 0.00 32 1013.2
20260503213029 16 227 3.2 14.5 0.00 0.00 0.00 32 1013.1
20260503212508 16 348 4.8 14.5 0.00 0.00 0.00 31 1013.1
20260503212008 16 180 6.4 17.7 0.00 0.00 0.00 32 1013.1
20260503211522 16 173 6.4 17.7 0.00 0.00 0.00 32 1013.0
20260503211010 16 336 3.2 19.3 0.00 0.00 0.00 32 1013.0
20260503210510 16 329 6.4 19.3 0.00 0.00 0.00 32 1013.0
20260503210021 16 136 9.7 16.1 0.00 0.00 0.00 30 1013.1
20260503205509 16 47 6.4 25.7 0.00 0.00 0.00 35 1013.1
20260503205005 16 32 11.3 22.5 0.00 0.00 0.00 31 1013.1
20260503204522 16 325 9.7 22.5 0.00 0.00 0.00 30 1013.0
20260503204007 16 327 4.8 22.5 0.00 0.00 0.00 34 1013.1
20260503203508 16 29 4.8 19.3 0.00 0.00 0.00 34 1013.2
20260503203016 16 331 9.7 17.7 0.00 0.00 0.00 31 1013.2
20260503202511 16 315 4.8 20.9 0.00 0.00 0.00 34 1013.2
20260503202010 16 23 6.4 22.5 0.00 0.00 0.00 32 1013.4
20260503201522 15 35 6.4 22.5 0.00 0.00 0.00 35 1013.3
20260503201009 16 245 6.4 19.3 0.00 0.00 0.00 34 1013.4
20260503200507 15 360 9.7 19.3 0.00 0.00 0.00 33 1013.5
20260503200024 15 19 4.8 19.3 0.00 0.00 0.00 33 1013.6
20260503195508 16 352 4.8 17.7 0.00 0.00 0.00 34 1013.5
20260503195006 16 204 6.4 14.5 0.00 0.00 0.00 33 1013.6
20260503194524 16 190 4.8 14.5 0.00 0.00 0.00 33 1013.8
20260503194009 15 88 3.2 16.1 0.00 0.00 0.00 34 1013.9
20260503193504 15 292 8.0 16.1 0.00 0.00 0.00 35 1014.1
20260503193016 16 186 6.4 16.1 0.00 0.00 0.00 33 1014.1
20260503192504 16 36 9.7 16.1 0.00 0.00 0.00 34 1014.2
20260503192012 16 345 6.4 17.7 0.00 0.00 0.00 34 1014.2
20260503191522 16 26 6.4 29.0 0.00 0.00 0.00 34 1014.1
20260503191007 15 34 6.4 29.0 0.00 0.00 0.00 35 1014.2
20260503190507 16 277 11.3 25.7 0.00 0.00 0.00 32 1014.2
20260503190036 15 315 6.4 12.9 0.00 0.00 0.00 33 1014.1
20260503185504 15 278 4.8 17.7 0.00 0.00 0.00 34 1014.3
20260503185004 15 324 9.7 17.7 0.00 0.00 0.00 36 1014.3
20260503184512 15 311 8.0 17.7 0.00 0.00 0.00 32 1014.3
20260503184003 15 14 6.4 17.7 0.00 0.00 0.00 34 1014.3
20260503183506 15 338 6.4 20.9 0.00 0.00 0.00 35 1014.3
20260503183012 15 308 9.7 20.9 0.00 0.00 0.00 34 1014.3
20260503182505 15 305 6.4 19.3 0.00 0.00 0.00 33 1014.4
20260503182007 16 271 9.7 22.5 0.00 0.00 0.00 32 1014.4
20260503181537 15 347 9.7 25.7 0.00 0.00 0.00 36 1014.5
20260503181008 15 28 6.4 25.7 0.00 0.00 0.00 33 1014.5
20260503180507 15 327 6.4 22.5 0.00 0.00 0.00 35 1014.5
20260503180037 15 360 6.4 19.3 0.00 0.00 0.00 33 1014.5
20260503175511 15 12 11.3 19.3 0.00 0.00 0.00 33 1014.7
20260503175008 14 317 4.8 19.3 0.00 0.00 0.00 32 1014.5
20260503174507 15 306 9.7 20.9 0.00 0.00 0.00 34 1014.9
20260503174004 15 298 9.7 20.9 0.00 0.00 0.00 35 1014.8
20260503173503 14 123 6.4 20.9 0.00 0.00 0.00 32 1014.7
20260503173009 14 25 6.4 20.9 0.00 0.00 0.00 34 1014.8
20260503172508 14 103 8.0 17.7 0.00 0.00 0.00 32 1014.9
20260503172006 13 329 6.4 22.5 0.00 0.00 0.00 35 1014.9
20260503171522 13 351 8.0 22.5 0.00 0.00 0.00 35 1014.8
20260503171007 13 345 8.0 24.1 0.00 0.00 0.00 38 1015.0
20260503170505 13 360 6.4 24.1 0.00 0.00 0.00 37 1014.9
20260503151005 11 336 9.7 24.1 0.00 0.00 0.00 42 1015.4
20260503150506 12 35 11.3 24.1 0.00 0.00 0.00 43 1015.4
20260503131011 8 297 6.4 24.1 0.00 0.00 0.00 52 1015.5
20260503130510 8 19 6.4 20.9 0.00 0.00 0.00 54 1015.4
20260503110514 6 300 4.8 16.1 0.00 0.00 0.00 63 1014.2